View from above orbital plane
|
View from above satellite
|
Ground track
|
The orbit data is extracted from the following two-line orbital elements,
1 45876U 20046D 21100.11855276 0.00002300 00000-0 19151-3 0 09
2 45876 53.9794 202.0166 0002378 262.7411 97.2588 14.98209274 04
Epoch (UTC): | 10 April 2021 02:50:42 |
Eccentricity: | 0.0002378 |
inclination: | 53.9794° |
perigee height: | 571 km |
apogee height: | 574 km |
right ascension of ascending node: | 202.0166° |
argument of perigee: | 262.7411° |
revolutions per day: | 14.98209274 |
mean anomaly at epoch: | 97.2588° |
orbit number at epoch: | 0 |
The dashed part of the orbit path shows where the satellite is in the earth's shadow,
|
|